Date,TemperatureHighF,TemperatureAvgF,TemperatureLowF,DewpointHighF,DewpointAvgF,DewpointLowF,HumidityHigh,HumidityAvg,HumidityLow,PressureMaxIn,PressureMinIn,WindSpeedMaxMPH,WindSpeedAvgMPH,GustSpeedMaxMPH,PrecipitationSumIn
2013-1-1,30,29,27,25,22,21,92,76,68,30.64,30.54,9,4,0,0.00
2013-1-2,30,30,28,23,22,21,79,73,68,30.62,30.49,15,9,24,0.00
2013-1-3,30,29,27,25,21,19,92,71,63,30.50,30.37,13,6,18,0.00
2013-1-4,32,29,27,27,24,19,100,81,63,30.45,30.36,9,3,0,0.00
2013-1-5,30,29,28,28,26,23,100,87,74,30.42,30.26,7,1,0,0.02
2013-1-6,34,30,25,32,28,25,100,94,80,30.27,30.10,3,0,0,0.00
2013-1-7,52,40,32,45,37,32,100,88,66,30.14,29.97,16,5,24,0.03
2013-1-8,52,44,39,45,41,37,100,89,70,30.18,29.89,14,4,21,0.08
2013-1-9,45,38,32,43,36,32,100,93,75,29.95,29.70,9,3,21,0.12
2013-1-10,41,36,30,34,31,28,100,85,65,30.04,29.94,13,6,18,0.00
2013-1-11,39,32,27,28,25,19,86,76,44,30.30,30.05,8,1,0,0.00
2013-1-12,36,27,21,25,22,19,100,83,55,30.40,30.29,7,1,0,0.00
2013-1-13,32,24,18,23,20,16,100,84,68,30.50,30.39,8,1,0,0.00
2013-1-14,41,29,19,32,24,18,92,82,56,30.48,30.37,16,6,28,0.00
2013-1-15,43,34,28,34,31,28,100,89,70,30.63,30.48,10,1,0,0.00
2013-1-16,34,32,30,32,30,28,100,93,86,30.60,30.55,5,1,0,0.00
2013-1-17,30,30,28,28,27,27,92,87,86,30.60,30.44,7,4,0,0.00
2013-1-18,39,30,28,28,27,25,100,85,64,30.44,30.29,3,0,0,0.00
2013-1-19,32,29,25,28,27,25,100,90,80,30.50,30.34,6,3,0,0.00
2013-1-20,30,28,28,27,26,25,92,87,80,30.58,30.47,13,6,17,0.00
2013-1-21,28,28,27,25,25,23,92,87,79,30.48,30.36,7,5,0,0.00
2013-1-22,28,27,27,25,23,23,92,85,79,30.37,30.21,8,6,0,0.00
2013-1-23,30,28,27,28,24,23,100,87,74,30.21,30.04,8,3,0,0.00
2013-1-24,39,33,28,34,31,27,100,92,80,30.26,30.17,5,0,0,0.05
2013-1-25,37,35,32,37,34,32,100,97,93,30.19,29.97,0,0,0,0.09
2013-1-26,43,37,32,43,35,32,100,95,80,30.05,29.95,12,2,16,0.00
2013-1-27,41,37,30,36,34,30,100,88,75,30.10,30.02,13,5,21,0.00
2013-1-28,43,38,32,37,35,32,100,86,70,30.07,30.02,17,5,24,0.14
2013-1-29,48,44,41,41,39,36,86,80,70,30.36,30.06,17,9,29,0.06
2013-1-30,48,46,43,45,42,39,93,85,81,30.38,30.34,20,13,27,0.00
2013-1-31,54,48,41,41,40,37,87,74,58,30.37,30.31,12,7,18,0.00
2013-2-1,55,43,32,41,36,30,100,79,47,30.44,30.32,12,2,20,0.00
2013-2-2,52,37,28,39,33,27,100,87,57,30.46,30.30,8,1,0,0.00
2013-2-3,48,40,28,41,35,28,100,82,65,30.30,30.19,18,8,29,0.00
2013-2-4,50,42,34,39,36,32,93,78,57,30.21,29.96,10,2,18,0.00
2013-2-5,48,41,36,43,38,32,100,87,75,30.02,29.90,9,3,21,0.10
2013-2-6,48,42,36,41,38,36,100,88,70,30.11,29.90,6,1,0,0.04
2013-2-7,46,39,30,37,33,28,100,80,56,30.12,29.90,12,3,18,0.02
2013-2-8,48,34,25,32,29,25,100,82,49,30.23,30.12,10,3,18,0.00
2013-2-9,46,38,30,34,31,28,93,77,61,30.27,30.17,15,4,25,0.00
2013-2-10,50,37,27,36,32,27,100,81,53,30.33,30.24,13,4,22,0.00
2013-2-11,48,42,30,39,34,30,100,74,56,30.33,30.24,20,9,29,0.00
2013-2-12,52,47,43,43,41,39,93,81,62,30.40,30.33,20,10,25,0.00
2013-2-13,54,48,43,43,39,36,81,71,54,30.46,30.33,16,9,24,0.00
2013-2-14,54,46,36,41,37,34,93,72,58,30.52,30.46,15,6,24,0.00
2013-2-15,55,41,30,41,36,30,100,84,54,30.53,30.27,8,2,0,0.00
2013-2-16,50,41,30,43,35,30,100,82,65,30.27,30.15,18,6,27,0.00
2013-2-17,46,41,32,34,29,27,80,63,45,30.24,30.10,13,6,25,0.00
2013-2-18,45,36,30,32,30,27,92,78,56,30.10,29.78,9,2,16,0.00
2013-2-19,52,37,27,32,29,25,100,75,37,29.97,29.74,7,2,0,0.00
2013-2-20,46,35,27,36,31,25,100,84,56,30.06,29.97,18,4,27,0.00
2013-2-21,43,39,32,37,35,32,100,85,70,30.12,30.06,14,5,20,0.00
2013-2-22,45,41,37,41,37,30,100,87,69,30.12,29.80,15,4,27,0.19
2013-2-23,46,40,36,34,32,28,86,71,52,30.39,29.96,14,7,29,0.00
2013-2-24,48,41,34,34,32,30,93,70,53,30.39,30.07,13,6,21,0.00
2013-2-25,46,40,36,37,35,30,100,83,65,30.32,29.99,14,5,27,0.28
2013-2-26,46,40,36,36,33,28,86,75,56,30.37,30.25,13,4,17,0.00
2013-2-27,52,41,30,41,36,28,100,83,57,30.32,30.25,8,2,0,0.00
2013-2-28,52,47,43,50,45,41,100,93,87,30.41,30.24,7,0,0,0.29
2013-3-1,57,52,43,50,48,41,100,86,71,30.42,30.32,14,5,21,0.01
2013-3-2,54,45,39,46,42,34,100,87,71,30.32,30.09,17,5,30,0.01
2013-3-3,48,42,34,36,30,27,80,61,46,30.27,30.17,10,6,21,0.00
2013-3-4,52,38,25,30,25,18,100,65,29,30.27,30.01,12,3,18,0.00
2013-3-5,41,35,30,37,31,25,93,85,80,30.02,29.76,5,1,0,0.02
2013-3-6,41,38,32,39,36,32,100,95,86,29.94,29.62,6,1,0,0.27
2013-3-7,54,42,30,39,34,28,100,76,40,30.07,29.94,7,1,0,0.00
2013-3-8,57,41,28,34,31,28,100,73,33,30.20,30.03,7,2,0,0.00
2013-3-9,59,42,27,36,29,23,100,64,28,30.47,30.20,14,3,21,0.00
2013-3-10,54,47,34,43,38,28,87,71,46,30.47,30.37,22,11,32,0.00
2013-3-11,55,49,43,46,43,41,93,81,58,30.40,30.23,13,4,18,0.00
2013-3-12,57,50,43,48,45,41,100,82,71,30.24,30.14,22,7,30,0.00
2013-3-13,64,54,45,46,44,41,87,70,48,30.22,30.11,14,5,21,0.00
2013-3-14,64,52,43,48,43,39,93,74,45,30.18,30.04,22,7,32,0.00
2013-3-15,59,53,43,48,45,41,100,77,58,30.22,30.13,13,6,21,0.00
2013-3-16,52,47,37,46,42,34,93,81,66,30.14,29.93,18,6,25,0.18
2013-3-17,45,40,37,36,32,28,86,72,52,30.22,30.03,14,7,25,0.02
2013-3-18,50,42,34,34,33,30,86,68,49,30.22,30.19,14,7,22,0.00
2013-3-19,46,38,30,39,32,28,100,82,49,30.22,29.79,7,2,0,0.23
2013-3-20,54,42,37,45,37,32,100,85,50,30.08,29.58,18,6,39,0.31
2013-3-21,45,39,36,36,33,30,93,78,60,30.23,30.07,17,7,28,0.09
2013-3-22,46,39,32,32,29,27,86,68,45,30.37,30.22,15,7,24,0.00
2013-3-23,48,37,30,32,28,21,92,72,34,30.38,30.27,6,2,0,0.00
2013-3-24,50,39,28,32,28,21,100,67,34,30.32,30.16,10,3,16,0.00
2013-3-25,57,44,32,37,30,27,92,63,33,30.17,29.95,9,3,17,0.00
2013-3-26,55,46,37,41,36,32,86,68,40,30.02,29.95,9,2,0,0.00
2013-3-27,63,50,41,46,41,37,93,74,48,30.00,29.91,7,3,0,0.00
2013-3-28,63,52,43,46,43,39,100,73,42,30.12,30.00,8,2,0,0.00
2013-3-29,68,55,45,46,44,41,93,68,37,30.22,30.12,9,2,0,0.04
2013-3-30,72,55,37,46,42,36,100,65,32,30.25,30.06,12,3,0,0.00
2013-3-31,73,56,39,45,40,37,93,61,27,30.09,29.90,9,3,0,0.00
2013-4-1,63,56,45,50,47,43,93,72,55,30.11,29.96,20,8,33,0.00
2013-4-2,64,57,52,48,46,43,81,66,51,30.17,30.11,20,12,32,0.00
2013-4-3,68,54,39,48,44,37,93,70,40,30.15,29.95,8,2,0,0.00
2013-4-4,59,54,50,54,49,46,93,83,71,29.95,29.74,9,2,17,0.10
2013-4-5,59,52,48,52,48,46,100,85,67,29.94,29.85,12,2,17,0.06
2013-4-6,54,48,43,48,44,39,100,86,62,29.99,29.80,13,3,21,0.23
2013-4-7,48,43,39,41,39,37,100,86,66,29.89,29.59,20,5,33,0.35
2013-4-8,54,47,39,39,37,34,93,69,54,30.27,29.89,15,6,21,0.00
2013-4-9,59,46,32,41,37,32,100,72,47,30.35,30.22,13,4,20,0.00
2013-4-10,59,50,45,52,42,34,93,75,53,30.26,30.03,16,5,30,0.04
2013-4-11,57,49,43,39,36,34,75,62,47,30.28,30.16,14,5,22,0.00
2013-4-12,54,44,32,43,36,30,100,76,50,30.17,29.78,20,5,30,0.00
2013-4-13,48,43,37,41,35,30,93,73,49,30.02,29.78,15,7,29,0.04
2013-4-14,54,44,36,37,35,32,86,71,43,30.03,29.89,14,5,22,0.00
2013-4-15,52,42,34,39,35,32,100,77,46,30.15,29.92,16,4,21,0.00
2013-4-16,52,43,32,39,35,30,100,75,43,30.40,30.14,8,2,0,0.00
2013-4-17,61,45,30,37,33,28,100,67,33,30.49,30.38,14,4,20,0.00
2013-4-18,57,51,46,46,39,36,87,64,50,30.43,30.27,18,11,29,0.00
2013-4-19,61,52,48,48,46,43,93,79,58,30.29,30.10,17,8,25,0.00
2013-4-20,57,52,48,45,41,39,81,66,50,30.28,30.21,17,10,27,0.00
2013-4-21,55,50,46,43,41,37,81,71,58,30.29,30.18,17,12,28,0.00
2013-4-22,61,48,34,39,32,23,100,59,25,30.47,30.28,12,3,17,0.00
2013-4-23,68,48,32,36,30,28,86,55,25,30.42,30.14,7,2,0,0.00
2013-4-24,70,48,32,36,31,27,92,58,22,30.34,30.11,13,4,16,0.00
2013-4-25,75,70,61,43,40,37,51,33,27,30.11,30.00,12,6,20,0.00
2013-4-26,79,62,43,46,39,34,93,49,20,30.20,30.11,12,3,22,0.00
2013-4-27,72,58,43,43,37,28,81,49,20,30.20,30.14,18,8,36,0.00
2013-4-28,63,57,50,46,43,37,87,61,39,30.22,30.00,14,6,20,0.00
2013-4-29,57,52,46,46,38,27,87,62,32,30.15,29.96,20,7,31,0.02
2013-4-30,55,47,41,34,30,27,70,52,37,30.40,30.15,10,6,18,0.00
2013-5-1,66,49,32,36,31,28,92,56,24,30.56,30.40,10,3,0,0.00
2013-5-2,75,56,34,45,35,30,93,52,19,30.55,30.23,10,2,0,0.00
2013-5-3,79,62,41,45,41,36,93,51,22,30.31,30.12,7,2,0,0.00
2013-5-4,81,65,46,45,36,27,87,42,16,30.18,29.96,16,7,27,0.00
2013-5-5,82,66,46,45,38,32,70,41,20,29.96,29.76,13,5,23,0.00
2013-5-6,86,67,48,50,45,39,76,49,20,29.86,29.70,7,3,0,0.00
2013-5-7,77,68,59,50,48,46,63,50,33,29.95,29.79,16,9,27,0.00
2013-5-8,72,65,59,50,50,48,72,59,46,30.09,29.94,18,11,31,0.00
2013-5-9,81,68,50,54,51,46,93,55,30,30.13,30.01,16,8,23,0.00
2013-5-10,86,68,48,52,46,-100,87,51,25,30.17,30.04,10,4,18,0.00
2013-5-11,86,72,57,57,50,45,72,48,28,30.16,29.96,14,5,22,0.00
2013-5-12,70,66,61,57,54,50,77,67,56,30.09,30.02,20,9,38,0.00
2013-5-13,70,60,54,55,50,39,87,69,40,30.19,30.01,14,6,23,0.00
2013-5-14,66,56,43,41,35,19,93,50,16,30.21,30.08,15,6,25,0.00
2013-5-15,61,53,45,48,42,36,81,67,50,30.11,30.01,14,5,22,0.00
2013-5-16,68,51,46,52,29,-100,93,72,45,30.03,29.88,13,4,21,0.00
2013-5-17,64,55,50,50,41,-100,100,72,42,30.07,29.96,14,6,22,0.15
2013-5-18,59,54,48,46,45,43,87,73,58,30.25,30.07,14,7,22,0.00
2013-5-19,64,57,45,48,46,43,93,68,48,30.33,30.24,14,5,24,0.00
2013-5-20,75,58,41,48,44,39,93,62,33,30.31,29.86,13,4,20,0.00
2013-5-21,57,51,41,45,42,39,93,72,54,29.93,29.78,17,9,24,0.03
2013-5-22,48,44,43,43,41,37,93,87,81,29.97,29.90,8,4,0,0.08
2013-5-23,54,47,41,45,42,39,100,84,66,30.04,29.97,8,2,0,0.02
2013-5-24,59,51,46,46,45,43,100,78,58,30.07,29.99,15,6,25,0.03
2013-5-25,66,55,43,48,44,41,93,69,45,30.06,29.94,13,5,20,0.00
2013-5-26,64,57,50,52,49,46,100,76,52,30.02,29.94,15,6,27,0.05
2013-5-27,57,52,46,54,50,43,100,90,71,30.00,29.78,8,2,0,0.27
2013-5-28,64,56,50,52,48,46,93,75,52,29.91,29.77,17,7,25,0.00
2013-5-29,61,53,48,52,49,46,100,85,63,30.02,29.69,16,4,25,0.34
2013-5-30,63,52,46,48,42,-100,93,71,48,30.24,30.01,15,-77,22,0.00
2013-5-31,70,57,43,46,44,41,100,65,37,30.31,30.19,12,5,17,0.00
2013-6-1,75,60,45,52,47,43,93,66,38,30.23,30.00,15,4,25,0.00
2013-6-2,72,62,50,52,49,45,93,63,40,30.04,29.97,16,5,23,0.00
2013-6-3,75,63,45,50,48,43,93,60,38,30.07,29.96,12,4,20,0.00
2013-6-4,84,66,46,54,46,41,87,54,21,30.11,29.98,8,3,16,0.00
2013-6-5,84,69,52,55,50,46,81,53,26,30.06,29.93,13,4,20,0.00
2013-6-6,82,71,55,59,54,50,87,57,32,30.00,29.91,13,5,29,0.00
2013-6-7,79,69,61,54,45,34,63,42,22,30.09,29.98,16,10,25,0.00
2013-6-8,81,67,48,50,45,37,87,49,23,30.10,30.00,17,6,23,0.00
2013-6-9,73,65,55,52,46,41,71,53,31,30.02,29.93,14,8,24,0.00
2013-6-10,72,60,46,46,44,37,87,56,28,29.96,29.83,21,9,29,0.00
2013-6-11,63,57,52,46,43,39,76,60,45,30.11,29.91,18,11,27,0.00
2013-6-12,66,57,46,46,44,39,87,64,39,30.14,30.10,17,8,28,0.00
2013-6-13,64,57,50,50,46,45,87,69,48,30.23,30.14,17,-23,28,0.02
2013-6-14,70,60,52,48,46,45,76,62,42,30.24,30.00,15,9,24,0.00
2013-6-15,84,65,45,59,47,43,93,58,23,30.00,29.86,10,3,21,0.12
2013-6-16,75,66,57,59,53,45,93,64,37,30.07,29.96,15,5,28,0.00
2013-6-17,77,68,59,54,50,45,82,55,33,30.07,29.90,17,9,28,0.00
2013-6-18,72,62,55,50,46,39,76,56,30,29.99,29.88,16,-25,27,0.00
2013-6-19,66,58,54,50,46,43,82,63,42,30.05,29.92,16,10,24,0.00
2013-6-20,64,56,52,50,48,46,87,74,52,30.07,30.02,15,8,22,0.00
2013-6-22,81,72,55,55,49,45,72,47,28,30.09,29.86,8,3,0,0.00
2013-6-23,72,65,59,63,58,54,100,78,60,29.86,29.67,8,1,0,0.10
2013-6-24,66,60,57,61,54,50,100,80,59,29.73,29.65,13,5,23,0.01
2013-6-25,68,58,55,59,51,-100,100,84,68,29.90,29.72,7,1,0,0.08
2013-6-26,70,61,55,59,55,54,100,82,56,30.08,29.90,9,2,0,0.00
2013-6-27,82,68,57,61,57,55,93,71,44,30.17,30.07,12,3,21,0.00
2013-6-28,93,76,59,64,60,57,93,62,32,30.18,29.99,9,3,16,0.00
2013-6-29,88,78,68,63,60,54,82,56,31,30.05,29.95,15,5,23,0.00
2013-6-30,99,79,61,66,58,54,77,53,25,30.01,29.82,8,3,0,0.00
2013-7-1,95,79,66,66,63,61,88,60,36,29.96,29.88,13,4,21,0.00
2013-7-2,91,79,64,66,62,50,93,59,27,30.02,29.94,18,5,24,0.00
2013-7-3,86,75,66,57,52,36,68,48,23,30.08,29.97,14,7,21,0.00
2013-7-4,77,68,57,52,49,45,76,52,38,30.05,29.95,22,11,32,0.00
2013-7-5,73,66,57,52,49,48,76,56,43,29.99,29.89,16,8,24,0.00
2013-7-6,82,66,52,55,52,48,87,63,32,29.94,29.79,12,5,22,0.00
2013-7-7,79,69,55,57,55,52,87,63,47,29.91,29.81,17,6,28,0.00
2013-7-8,84,70,59,55,54,52,82,58,34,30.03,29.90,16,7,23,0.00
2013-7-9,93,73,54,61,52,46,81,52,24,30.09,29.93,13,4,22,0.21
2013-7-10,84,72,57,57,48,-100,87,48,26,30.00,29.86,16,7,23,0.00
2013-7-11,77,64,55,48,43,-100,71,48,29,30.01,29.90,22,9,28,0.00
2013-7-12,75,65,52,50,46,43,81,53,31,30.07,29.94,15,6,23,0.00
2013-7-13,84,67,50,52,43,25,81,48,12,30.15,30.01,7,2,0,0.00
2013-7-14,90,70,50,50,46,39,76,47,18,30.11,29.91,14,4,23,0.00
2013-7-15,90,71,52,50,46,41,76,45,18,29.99,29.81,7,2,0,0.00
2013-7-16,84,69,55,63,50,43,71,53,23,29.92,29.80,7,2,0,0.00
2013-7-17,79,71,63,55,53,48,72,54,34,30.11,29.90,20,12,29,0.00
2013-7-18,86,76,50,55,49,41,81,43,21,30.15,29.99,14,7,21,0.00
2013-7-19,88,72,52,59,52,45,76,51,28,30.08,29.92,14,5,23,0.00
2013-7-20,84,70,55,57,52,-100,77,57,37,29.99,29.86,14,4,22,0.00
2013-7-21,84,72,55,55,53,46,76,52,32,29.89,29.81,14,6,27,0.00
2013-7-22,88,74,59,55,52,46,82,50,25,29.94,29.86,16,6,22,0.00
2013-7-23,91,74,52,57,49,43,71,45,21,30.01,29.86,14,5,22,0.00
2013-7-24,91,77,59,57,50,43,68,43,18,29.99,29.91,14,6,21,0.00
2013-7-25,91,83,70,54,51,48,52,33,24,30.02,29.96,16,6,22,0.00
2013-7-26,91,71,54,55,47,39,58,44,23,30.08,29.99,12,4,18,0.00
2013-7-27,81,71,57,48,45,39,62,40,22,30.09,29.94,14,8,25,0.00
2013-7-28,73,66,57,52,49,46,71,56,38,29.97,29.90,18,10,28,0.00
2013-7-29,79,65,50,54,50,45,93,59,29,29.96,29.87,14,7,23,0.00
2013-7-30,82,71,59,55,52,48,82,53,30,30.08,29.97,14,6,23,0.00
2013-7-31,82,72,61,59,55,48,64,55,39,30.07,29.93,10,4,20,0.00
2013-8-1,70,65,61,57,54,54,82,68,56,30.06,29.98,14,7,25,0.00
2013-8-2,70,64,59,54,52,50,77,65,49,30.11,30.06,20,9,30,0.00
2013-8-3,84,69,54,57,53,50,87,60,32,30.10,29.95,7,2,0,0.00
2013-8-4,91,74,55,57,54,50,87,56,24,30.04,29.86,8,3,0,0.00
2013-8-5,90,75,55,59,56,52,87,54,29,29.98,29.86,13,3,22,0.00
2013-8-6,91,77,57,59,50,39,77,43,19,29.97,29.86,13,4,22,0.00
2013-8-7,90,77,55,52,49,39,59,37,25,29.98,29.87,15,5,21,0.00
2013-8-8,82,73,63,61,56,54,77,55,42,29.97,29.85,14,6,22,0.00
2013-8-9,86,72,63,64,59,55,88,66,35,29.97,29.76,14,5,31,0.05
2013-8-10,81,69,59,63,60,57,93,74,51,29.99,29.90,13,5,22,0.01
2013-8-11,81,70,63,61,56,50,88,63,36,30.04,29.94,16,6,24,0.00
2013-8-12,81,68,52,55,54,50,93,63,39,30.04,29.95,16,6,29,0.00
2013-8-13,88,69,54,55,48,-100,87,56,19,30.08,29.90,13,4,18,0.00
2013-8-21,88,68,52,57,49,39,81,55,18,30.05,29.88,6,2,0,0.00
2013-8-22,81,68,57,61,54,46,72,60,39,29.92,29.83,14,2,0,0.00
2013-8-23,73,68,61,61,57,52,88,68,46,29.90,29.84,21,8,32,0.09
2013-8-24,77,67,57,55,52,48,87,60,38,29.89,29.83,15,6,24,0.00
2013-8-25,70,62,55,61,55,50,100,79,52,29.92,29.87,7,1,0,0.10
2013-8-26,77,64,55,61,55,48,100,74,41,29.97,29.89,14,3,21,0.00
2013-8-27,77,60,52,55,52,50,93,76,47,29.98,29.88,7,2,0,0.00
2013-8-28,84,78,73,59,57,55,60,48,39,29.90,29.81,10,6,0,0.00
2013-8-29,79,70,64,64,60,59,88,71,50,30.05,29.86,14,4,21,0.01
2013-8-30,81,71,64,61,58,54,88,64,39,30.15,30.03,13,6,22,0.00
2013-8-31,90,71,54,61,54,50,93,62,25,30.06,29.82,8,2,0,0.00
2013-9-1,84,72,57,57,55,52,87,58,35,29.88,29.75,16,5,23,0.00
2013-9-2,84,71,63,55,54,54,77,56,35,29.89,29.82,15,5,22,0.00
2013-9-3,81,72,63,57,55,54,77,56,39,29.99,29.89,15,6,23,0.00
2013-9-4,75,65,55,57,55,52,87,69,53,29.99,29.96,16,4,29,0.00
2013-9-7,81,65,50,59,54,48,93,71,36,30.12,29.95,7,1,0,0.00
2013-9-8,86,69,55,61,56,48,93,66,27,30.09,29.95,7,2,0,0.00
2013-9-9,86,68,54,63,58,50,93,72,35,30.00,29.86,9,3,0,0.11
2013-9-10,91,72,57,61,54,46,88,60,21,29.96,29.85,8,2,0,0.00
2013-9-11,95,74,57,61,54,48,87,55,20,29.98,29.88,7,4,0,0.00
2013-9-12,90,72,55,63,56,52,87,61,31,29.99,29.83,6,2,0,0.00
2013-9-13,82,68,59,61,59,55,88,74,47,29.89,29.82,17,6,25,0.00
2013-9-24,59,53,50,52,48,45,93,82,62,29.98,29.85,14,3,20,0.00
2013-9-25,61,53,48,48,45,45,87,76,58,29.98,29.83,9,3,18,0.00
2013-9-26,64,52,41,46,43,39,93,74,48,30.14,29.98,9,3,20,0.00
2013-9-27,59,52,45,52,48,41,100,86,62,30.14,29.94,12,4,17,0.12
2013-9-28,63,55,52,59,53,46,100,95,81,29.94,29.48,13,1,20,0.84
2013-9-29,54,51,48,52,49,46,100,93,81,29.70,29.38,8,1,0,0.63
2013-9-30,57,52,48,52,47,43,93,83,71,29.97,29.55,13,5,22,0.17
2013-10-22,72,52,39,48,44,37,100,77,35,30.19,30.04,5,1,0,0.00
2013-10-23,70,51,37,48,44,37,100,79,43,30.14,30.03,6,2,0,0.00
2013-10-24,68,50,37,50,44,37,100,82,45,30.14,30.04,3,0,0,0.00
2013-10-25,66,50,34,50,42,-100,100,83,55,30.27,30.12,3,0,0,0.00
2013-10-26,63,50,43,50,46,41,100,87,63,30.30,30.14,6,1,0,0.00
2013-10-27,52,48,43,48,44,41,100,87,71,30.14,29.81,20,5,32,0.01
2013-10-28,55,48,37,43,28,-100,76,50,30,29.96,29.86,15,6,25,0.00
2013-10-29,55,40,28,32,29,25,100,68,30,30.07,29.96,8,2,0,0.00
2013-10-30,59,44,28,34,31,27,100,65,35,30.13,30.05,17,6,27,0.00
2013-10-31,57,53,48,48,44,36,87,72,50,30.26,30.12,20,9,31,0.00
2013-11-1,61,49,36,46,42,34,100,79,55,30.29,29.96,8,2,0,0.00
2013-11-2,54,48,41,48,42,36,100,83,57,30.00,29.69,15,5,33,0.53
2013-11-14,52,44,36,41,39,34,100,81,62,30.28,30.05,9,4,0,0.00
2013-11-15,50,46,43,41,38,34,93,75,61,30.05,29.45,16,5,23,0.00
2013-11-16,48,45,41,43,38,34,93,78,66,29.78,29.39,14,9,28,0.16
2013-11-17,50,46,41,45,43,37,100,86,70,29.97,29.79,10,3,18,0.05
2013-11-18,52,47,41,48,45,41,100,90,76,29.96,29.69,9,1,0,0.07
2013-11-19,52,48,41,52,44,34,100,86,70,29.93,29.67,17,6,25,0.10
2013-11-20,45,35,25,34,24,12,100,70,30,30.47,29.95,15,3,20,0.00
2013-12-16,50,40,30,43,36,28,100,85,61,30.46,30.32,15,4,21,0.00
2013-12-17,45,33,27,34,30,25,100,88,65,30.32,30.10,12,2,18,0.00
2013-12-18,48,42,34,39,34,27,93,76,56,30.11,29.98,14,6,24,0.00
2013-12-19,37,30,23,28,25,21,100,81,51,30.32,30.09,6,1,0,0.00
2013-12-20,45,37,28,43,32,25,93,82,64,30.17,29.77,27,12,35,0.00
2013-12-21,50,48,45,43,41,39,93,77,70,30.16,29.79,18,12,28,0.00
2013-12-22,54,49,46,45,44,41,87,81,71,30.31,30.15,20,14,30,0.00
2013-12-26,36,29,25,36,28,23,100,95,80,30.44,30.31,3,0,0,0.00
2013-12-27,43,31,27,39,31,27,100,97,86,30.32,30.18,7,1,0,0.00
2013-12-28,46,36,30,37,33,30,100,90,65,30.51,30.32,12,2,20,0.00
2013-12-29,32,30,28,32,30,28,100,99,92,30.51,30.26,5,1,0,0.00
2013-12-30,37,33,30,37,32,28,100,97,80,30.28,30.19,5,1,0,0.00
2013-12-31,52,40,30,37,34,30,100,81,53,30.35,30.19,15,4,23,0.00
2014-1-1,45,35,28,39,33,28,100,92,75,30.44,30.34,5,1,0,0.00
2014-1-2,50,38,34,41,35,32,100,88,61,30.36,29.94,18,2,33,0.01